Morning Charlotte — 3EMA2 — position and weather

sailwx.info

Track history (hours):
 
Tides and Currents Weather Stations Pressure Air Temp Water Temp Dewpoint Dewpoint Depression Visibility Wind Speed Wind Dir Waves Ship Positions

Morning Charlotte

Last reported at 2016-Jul-06 18:27 UTC. Time now 2016-Jul-30 09:06 UTC.
Position N 20°06' W 018°14'.
Warning: this ship's position is 23 days out of date.

Length 200 m; draft 9.4 m.

Type: Cargo ship. MMSI: 357275000.

Date/timePositionNaut miles runAvg speedWind from/ knotsBaromVisibWave heightAir tempDewpointWater temp
2016-Jul-06 18:27N 20°06' W 018°14'46417.9
2016-Jul-05 16:33N 27°41' W 016°29'2318.8
2016-Jul-05 15:20N 28°02' W 016°19'1719.3
2016-Jul-05 14:26N 28°16' W 016°07'1718.6
2016-Jul-05 13:33N 28°28' W 015°55'1818.3
2016-Jul-05 12:33N 28°43' W 015°44'1818.5
2016-Jul-05 11:33N 29°01' W 015°38'56618.2
2016-Jul-04 04:27N 38°07' W 012°37'1617.6
2016-Jul-04 03:31N 38°23' W 012°32'1917.7
2016-Jul-04 02:26N 38°41' W 012°25'1718.3
2016-Jul-04 01:30N 38°58' W 012°19'66617.4
2016-Jul-02 11:11N 48°57' W 005°38'10415.8
2016-Jul-02 04:33N 49°51' W 003°20'1514.6
2016-Jul-02 03:33N 49°58' W 003°01'1515.2
2016-Jul-02 02:33N 50°04' W 002°39'7017.4
2016-Jul-01 22:31N 50°36' W 000°60'9 9.2
2016-Jul-01 21:33N 50°44' W 001°04'1010.1
2016-Jul-01 20:33N 50°49' W 001°18'6 5.7
2016-Jul-01 19:32N 50°53' W 001°24'0 0.0
2016-Jul-01 18:32N 50°53' W 001°24'0 0.0
2016-Jul-01 17:32N 50°53' W 001°24'0 0.0
2016-Jul-01 16:32N 50°53' W 001°24'0 0.0
2016-Jul-01 15:26N 50°53' W 001°24'0 0.0
2016-Jul-01 14:32N 50°53' W 001°24'0 0.0
2016-Jul-01 13:32N 50°53' W 001°24'0 0.0
2016-Jul-01 12:32N 50°53' W 001°24'0 0.0
2016-Jul-01 11:29N 50°53' W 001°24'0 0.0
2016-Jul-01 10:32N 50°53' W 001°24'0 0.0
2016-Jul-01 09:32N 50°53' W 001°24'0 0.0
2016-Jul-01 08:29N 50°53' W 001°24'0 0.0
2016-Jul-01 07:29N 50°53' W 001°24'0 0.0
2016-Jul-01 06:32N 50°53' W 001°24'0 0.0
2016-Jul-01 05:32N 50°53' W 001°24'0 0.0
2016-Jul-01 04:32N 50°53' W 001°24'0 0.0
2016-Jul-01 03:34N 50°53' W 001°24'7 7.4
2016-Jul-01 02:33N 50°46' W 001°18'1111.4
2016-Jul-01 01:33N 50°43' W 001°01'8 8.4
2016-Jul-01 00:34N 50°37' W 000°53'9 8.6
2016-Jun-30 23:34N 50°33' W 000°40'3 2.7
2016-Jun-30 22:33N 50°33' W 000°36'1413.9
2016-Jun-30 21:33N 50°30' W 000°14'1515.6
2016-Jun-30 20:33N 50°33' E 000°10'1615.5
2016-Jun-30 19:33N 50°37' E 000°33'1915.2
2016-Jun-30 18:16N 50°47' E 000°59'1115.3
2016-Jun-30 17:34N 50°53' E 001°14'1414.5
2016-Jun-30 16:33N 51°04' E 001°30'1817.7
2016-Jun-30 15:33N 51°17' E 001°49'1717.4
2016-Jun-30 14:33N 51°32' E 002°02'1716.7
2016-Jun-30 13:33N 51°44' E 002°20'1616.1
2016-Jun-30 12:33N 51°56' E 002°38'7815.3
2016-Jun-30 07:27N 52°57' E 003°58'1616.6
2016-Jun-30 06:31N 53°07' E 004°18'2914.7
2016-Jun-30 04:33N 53°30' E 004°46'1414.4
2016-Jun-30 03:33N 53°36' E 005°08'1413.7
2016-Jun-30 02:34N 53°40' E 005°30'1413.5
2016-Jun-30 01:33N 53°45' E 005°52'1414.3
2016-Jun-30 00:33N 53°49' E 006°15'1515.3
2016-Jun-29 23:33N 53°52' E 006°40'1616.0
2016-Jun-29 22:33N 53°56' E 007°07'1616.3
2016-Jun-29 21:33N 53°59' E 007°34'1312.6
2016-Jun-29 20:33N 53°52' E 007°52'1414.2
2016-Jun-29 19:33N 53°45' E 008°12'1414.0
2016-Jun-29 18:33N 53°36' E 008°30'3 2.5
2016-Jun-29 17:34N 53°34' E 008°33'0 0.3
2016-Jun-29 16:33N 53°35' E 008°33'0 0.0
2016-Jun-29 15:33N 53°35' E 008°33'0 0.0
2016-Jun-29 14:33N 53°35' E 008°33'0 0.0
2016-Jun-29 13:33N 53°35' E 008°33'0 0.0
2016-Jun-29 12:33N 53°35' E 008°33'0 0.0
2016-Jun-29 11:33N 53°35' E 008°33'0 0.0
2016-Jun-29 10:33N 53°35' E 008°33'0 0.0
2016-Jun-29 09:33N 53°35' E 008°33'0 0.0
2016-Jun-29 08:33N 53°35' E 008°33'0 0.0
2016-Jun-29 07:33N 53°35' E 008°33'0 0.0
2016-Jun-29 06:24N 53°35' E 008°33'0 0.0
2016-Jun-29 05:33N 53°35' E 008°33'0 0.0
2016-Jun-29 04:30N 53°35' E 008°33'0 0.0
2016-Jun-29 03:33N 53°35' E 008°33'0 0.0
2016-Jun-29 02:33N 53°35' E 008°33'0 0.0
2016-Jun-29 01:30N 53°35' E 008°33'0 0.0
2016-Jun-29 00:30N 53°35' E 008°33'0 0.0
2016-Jun-28 23:33N 53°35' E 008°33'0 0.0
2016-Jun-28 22:33N 53°35' E 008°33'0 0.0
2016-Jun-28 21:33N 53°35' E 008°33'0 0.0
2016-Jun-28 20:33N 53°35' E 008°33'0 0.0
2016-Jun-28 19:33N 53°35' E 008°33'0 0.0
2016-Jun-28 18:33N 53°35' E 008°33'0 0.0
2016-Jun-28 17:33N 53°35' E 008°33'0 0.0
2016-Jun-28 16:33N 53°35' E 008°33'0 0.0
2016-Jun-28 15:33N 53°35' E 008°33'0 0.0
2016-Jun-28 14:30N 53°35' E 008°33'0 0.0
2016-Jun-28 13:33N 53°35' E 008°33'0 0.0
2016-Jun-28 12:33N 53°35' E 008°33'0 0.0
2016-Jun-28 11:33N 53°35' E 008°33'0 0.0
2016-Jun-28 10:33N 53°35' E 008°33'0 0.0
2016-Jun-28 09:30N 53°35' E 008°33'0 0.0
2016-Jun-28 08:33N 53°35' E 008°33'0 0.0
2016-Jun-28 07:33N 53°35' E 008°33'0 0.0
2016-Jun-28 06:33N 53°35' E 008°33'0 0.0
2016-Jun-28 04:33N 53°35' E 008°33'0 0.0
2016-Jun-28 03:33N 53°35' E 008°33'0 0.0
2016-Jun-28 02:33N 53°35' E 008°33'0 0.0
2016-Jun-28 01:33N 53°35' E 008°33'0 0.0
2016-Jun-28 00:33N 53°35' E 008°33'0 0.0
2016-Jun-27 23:30N 53°35' E 008°33'0 0.0
2016-Jun-27 22:30N 53°35' E 008°33'0 0.0
2016-Jun-27 21:33N 53°35' E 008°33'0 0.0
2016-Jun-27 20:33N 53°35' E 008°33'0 0.0
2016-Jun-27 19:33N 53°35' E 008°33'1 0.8
2016-Jun-27 18:33N 53°34' E 008°33'10 9.8
2016-Jun-27 17:33N 53°41' E 008°21'1413.7
2016-Jun-27 16:34N 53°50' E 008°04'1212.2
2016-Jun-27 15:33N 53°53' E 007°44'1515.6
2016-Jun-27 14:34N 54°06' E 007°29'1211.9
2016-Jun-27 13:33N 54°18' E 007°30'2 2.2
2016-Jun-27 12:33N 54°16' E 007°27'3 2.6
2016-Jun-27 11:33N 54°18' E 007°31'2 2.5
2016-Jun-27 10:33N 54°17' E 007°27'2 1.6
2016-Jun-27 09:34N 54°16' E 007°25'7 7.4
2016-Jun-27 08:34N 54°09' E 007°32'1313.4
2016-Jun-27 07:33N 53°56' E 007°34'1616.1
2016-Jun-27 06:33N 53°52' E 007°07'1313.4
2016-Jun-27 05:33N 53°48' E 006°45'1413.6
2016-Jun-27 04:33N 53°45' E 006°23'1515.5
2016-Jun-27 03:34N 53°40' E 005°58'1717.2
2016-Jun-27 02:33N 53°35' E 005°30'1817.8
2016-Jun-27 01:33N 53°29' E 005°03'1816.8
2016-Jun-27 00:31N 53°18' E 004°39'1818.4
2016-Jun-26 23:33N 53°03' E 004°24'1717.5
2016-Jun-26 22:33N 52°47' E 004°11'1817.7
2016-Jun-26 21:33N 52°35' E 003°50'1817.9
2016-Jun-26 20:33N 52°22' E 003°30'1918.5
2016-Jun-26 19:33N 52°09' E 003°09'1918.9
2016-Jun-26 18:33N 51°55' E 002°48'  
Track history (hours):
 
Tides and Currents Weather Stations Pressure Air Temp Water Temp Dewpoint Dewpoint Depression Visibility Wind Speed Wind Dir Waves Ship Positions

Morning Charlotte

Last reported at 2016-Jul-06 18:27 UTC. Time now 2016-Jul-30 09:06 UTC.
Position N 20°06' W 018°14'.
Warning: this ship's position is 23 days out of date.

Length 200 m; draft 9.4 m.

Type: Cargo ship. MMSI: 357275000.

Date/timePositionNaut miles runAvg speedWind from/ knotsBaromVisibWave heightAir tempDewpointWater temp
2016-Jul-06 18:27N 20°06' W 018°14'46417.9
2016-Jul-05 16:33N 27°41' W 016°29'2318.8
2016-Jul-05 15:20N 28°02' W 016°19'1719.3
2016-Jul-05 14:26N 28°16' W 016°07'1718.6
2016-Jul-05 13:33N 28°28' W 015°55'1818.3
2016-Jul-05 12:33N 28°43' W 015°44'1818.5
2016-Jul-05 11:33N 29°01' W 015°38'56618.2
2016-Jul-04 04:27N 38°07' W 012°37'1617.6
2016-Jul-04 03:31N 38°23' W 012°32'1917.7
2016-Jul-04 02:26N 38°41' W 012°25'1718.3
2016-Jul-04 01:30N 38°58' W 012°19'66617.4
2016-Jul-02 11:11N 48°57' W 005°38'10415.8
2016-Jul-02 04:33N 49°51' W 003°20'1514.6
2016-Jul-02 03:33N 49°58' W 003°01'1515.2
2016-Jul-02 02:33N 50°04' W 002°39'7017.4
2016-Jul-01 22:31N 50°36' W 000°60'9 9.2
2016-Jul-01 21:33N 50°44' W 001°04'1010.1
2016-Jul-01 20:33N 50°49' W 001°18'6 5.7
2016-Jul-01 19:32N 50°53' W 001°24'0 0.0
2016-Jul-01 18:32N 50°53' W 001°24'0 0.0
2016-Jul-01 17:32N 50°53' W 001°24'0 0.0
2016-Jul-01 16:32N 50°53' W 001°24'0 0.0
2016-Jul-01 15:26N 50°53' W 001°24'0 0.0
2016-Jul-01 14:32N 50°53' W 001°24'0 0.0
2016-Jul-01 13:32N 50°53' W 001°24'0 0.0
2016-Jul-01 12:32N 50°53' W 001°24'0 0.0
2016-Jul-01 11:29N 50°53' W 001°24'0 0.0
2016-Jul-01 10:32N 50°53' W 001°24'0 0.0
2016-Jul-01 09:32N 50°53' W 001°24'0 0.0
2016-Jul-01 08:29N 50°53' W 001°24'0 0.0
2016-Jul-01 07:29N 50°53' W 001°24'0 0.0
2016-Jul-01 06:32N 50°53' W 001°24'0 0.0
2016-Jul-01 05:32N 50°53' W 001°24'0 0.0
2016-Jul-01 04:32N 50°53' W 001°24'0 0.0
2016-Jul-01 03:34N 50°53' W 001°24'7 7.4
2016-Jul-01 02:33N 50°46' W 001°18'1111.4
2016-Jul-01 01:33N 50°43' W 001°01'8 8.4
2016-Jul-01 00:34N 50°37' W 000°53'9 8.6
2016-Jun-30 23:34N 50°33' W 000°40'3 2.7
2016-Jun-30 22:33N 50°33' W 000°36'1413.9
2016-Jun-30 21:33N 50°30' W 000°14'1515.6
2016-Jun-30 20:33N 50°33' E 000°10'1615.5
2016-Jun-30 19:33N 50°37' E 000°33'1915.2
2016-Jun-30 18:16N 50°47' E 000°59'1115.3
2016-Jun-30 17:34N 50°53' E 001°14'1414.5
2016-Jun-30 16:33N 51°04' E 001°30'1817.7
2016-Jun-30 15:33N 51°17' E 001°49'1717.4
2016-Jun-30 14:33N 51°32' E 002°02'1716.7
2016-Jun-30 13:33N 51°44' E 002°20'1616.1
2016-Jun-30 12:33N 51°56' E 002°38'7815.3
2016-Jun-30 07:27N 52°57' E 003°58'1616.6
2016-Jun-30 06:31N 53°07' E 004°18'2914.7
2016-Jun-30 04:33N 53°30' E 004°46'1414.4
2016-Jun-30 03:33N 53°36' E 005°08'1413.7
2016-Jun-30 02:34N 53°40' E 005°30'1413.5
2016-Jun-30 01:33N 53°45' E 005°52'1414.3
2016-Jun-30 00:33N 53°49' E 006°15'1515.3
2016-Jun-29 23:33N 53°52' E 006°40'1616.0
2016-Jun-29 22:33N 53°56' E 007°07'1616.3
2016-Jun-29 21:33N 53°59' E 007°34'1312.6
2016-Jun-29 20:33N 53°52' E 007°52'1414.2
2016-Jun-29 19:33N 53°45' E 008°12'1414.0
2016-Jun-29 18:33N 53°36' E 008°30'3 2.5
2016-Jun-29 17:34N 53°34' E 008°33'0 0.3
2016-Jun-29 16:33N 53°35' E 008°33'0 0.0
2016-Jun-29 15:33N 53°35' E 008°33'0 0.0
2016-Jun-29 14:33N 53°35' E 008°33'0 0.0
2016-Jun-29 13:33N 53°35' E 008°33'0 0.0
2016-Jun-29 12:33N 53°35' E 008°33'0 0.0
2016-Jun-29 11:33N 53°35' E 008°33'0 0.0
2016-Jun-29 10:33N 53°35' E 008°33'0 0.0
2016-Jun-29 09:33N 53°35' E 008°33'0 0.0
2016-Jun-29 08:33N 53°35' E 008°33'0 0.0
2016-Jun-29 07:33N 53°35' E 008°33'0 0.0
2016-Jun-29 06:24N 53°35' E 008°33'0 0.0
2016-Jun-29 05:33N 53°35' E 008°33'0 0.0
2016-Jun-29 04:30N 53°35' E 008°33'0 0.0
2016-Jun-29 03:33N 53°35' E 008°33'0 0.0
2016-Jun-29 02:33N 53°35' E 008°33'0 0.0
2016-Jun-29 01:30N 53°35' E 008°33'0 0.0
2016-Jun-29 00:30N 53°35' E 008°33'0 0.0
2016-Jun-28 23:33N 53°35' E 008°33'0 0.0
2016-Jun-28 22:33N 53°35' E 008°33'0 0.0
2016-Jun-28 21:33N 53°35' E 008°33'0 0.0
2016-Jun-28 20:33N 53°35' E 008°33'0 0.0
2016-Jun-28 19:33N 53°35' E 008°33'0 0.0
2016-Jun-28 18:33N 53°35' E 008°33'0 0.0
2016-Jun-28 17:33N 53°35' E 008°33'0 0.0
2016-Jun-28 16:33N 53°35' E 008°33'0 0.0
2016-Jun-28 15:33N 53°35' E 008°33'0 0.0
2016-Jun-28 14:30N 53°35' E 008°33'0 0.0
2016-Jun-28 13:33N 53°35' E 008°33'0 0.0
2016-Jun-28 12:33N 53°35' E 008°33'0 0.0
2016-Jun-28 11:33N 53°35' E 008°33'0 0.0
2016-Jun-28 10:33N 53°35' E 008°33'0 0.0
2016-Jun-28 09:30N 53°35' E 008°33'0 0.0
2016-Jun-28 08:33N 53°35' E 008°33'0 0.0
2016-Jun-28 07:33N 53°35' E 008°33'0 0.0
2016-Jun-28 06:33N 53°35' E 008°33'0 0.0
2016-Jun-28 04:33N 53°35' E 008°33'0 0.0
2016-Jun-28 03:33N 53°35' E 008°33'0 0.0
2016-Jun-28 02:33N 53°35' E 008°33'0 0.0
2016-Jun-28 01:33N 53°35' E 008°33'0 0.0
2016-Jun-28 00:33N 53°35' E 008°33'0 0.0
2016-Jun-27 23:30N 53°35' E 008°33'0 0.0
2016-Jun-27 22:30N 53°35' E 008°33'0 0.0
2016-Jun-27 21:33N 53°35' E 008°33'0 0.0
2016-Jun-27 20:33N 53°35' E 008°33'0 0.0
2016-Jun-27 19:33N 53°35' E 008°33'1 0.8
2016-Jun-27 18:33N 53°34' E 008°33'10 9.8
2016-Jun-27 17:33N 53°41' E 008°21'1413.7
2016-Jun-27 16:34N 53°50' E 008°04'1212.2
2016-Jun-27 15:33N 53°53' E 007°44'1515.6
2016-Jun-27 14:34N 54°06' E 007°29'1211.9
2016-Jun-27 13:33N 54°18' E 007°30'2 2.2
2016-Jun-27 12:33N 54°16' E 007°27'3 2.6
2016-Jun-27 11:33N 54°18' E 007°31'2 2.5
2016-Jun-27 10:33N 54°17' E 007°27'2 1.6
2016-Jun-27 09:34N 54°16' E 007°25'7 7.4
2016-Jun-27 08:34N 54°09' E 007°32'1313.4
2016-Jun-27 07:33N 53°56' E 007°34'1616.1
2016-Jun-27 06:33N 53°52' E 007°07'1313.4
2016-Jun-27 05:33N 53°48' E 006°45'1413.6
2016-Jun-27 04:33N 53°45' E 006°23'1515.5
2016-Jun-27 03:34N 53°40' E 005°58'1717.2
2016-Jun-27 02:33N 53°35' E 005°30'1817.8
2016-Jun-27 01:33N 53°29' E 005°03'1816.8
2016-Jun-27 00:31N 53°18' E 004°39'1818.4
2016-Jun-26 23:33N 53°03' E 004°24'1717.5
2016-Jun-26 22:33N 52°47' E 004°11'1817.7
2016-Jun-26 21:33N 52°35' E 003°50'1817.9
2016-Jun-26 20:33N 52°22' E 003°30'1918.5
2016-Jun-26 19:33N 52°09' E 003°09'1918.9
2016-Jun-26 18:33N 51°55' E 002°48'  

Dump ship's entire track history